TimeEDT,TemperatureF,Dew PointF,Humidity,Sea Level PressureIn,VisibilityMPH,Wind Direction,Wind SpeedMPH,Gust SpeedMPH,PrecipitationIn,Events,Conditions,WindDirDegrees,DateUTC
12:53 AM,26.1,19.9,78,30.16,10.0,Calm,Calm,-,N/A,,Clear,0,2013-03-15 04:53:00
1:53 AM,25.0,19.9,81,30.15,10.0,Calm,Calm,-,N/A,,Clear,0,2013-03-15 05:53:00
2:53 AM,26.1,21.0,81,30.14,10.0,ESE,3.5,-,N/A,,Clear,110,2013-03-15 06:53:00
3:53 AM,25.0,19.9,81,30.11,10.0,Calm,Calm,-,N/A,,Clear,0,2013-03-15 07:53:00
4:53 AM,26.1,21.0,81,30.09,10.0,Calm,Calm,-,N/A,,Clear,0,2013-03-15 08:53:00
5:53 AM,28.9,23.0,78,30.08,10.0,Calm,Calm,-,N/A,,Overcast,0,2013-03-15 09:53:00
6:53 AM,32.0,19.9,61,30.06,10.0,SW,6.9,-,N/A,,Overcast,220,2013-03-15 10:53:00
7:33 AM,32.0,19.4,60,30.02,10.0,SW,5.8,-,N/A,,Overcast,220,2013-03-15 11:33:00
7:53 AM,32.0,21.0,64,30.04,10.0,SW,4.6,-,N/A,,Mostly Cloudy,230,2013-03-15 11:53:00
8:28 AM,33.8,21.2,60,30.01,10.0,SW,4.6,-,N/A,,Scattered Clouds,220,2013-03-15 12:28:00
8:53 AM,34.0,23.0,64,30.03,10.0,SW,9.2,-,N/A,,Scattered Clouds,230,2013-03-15 12:53:00
9:53 AM,35.1,25.0,67,30.02,10.0,WSW,5.8,-,N/A,,Mostly Cloudy,240,2013-03-15 13:53:00
10:53 AM,37.9,26.1,62,30.02,10.0,SW,6.9,-,N/A,,Mostly Cloudy,230,2013-03-15 14:53:00
11:53 AM,41.0,28.0,60,29.99,10.0,West,9.2,-,N/A,,Mostly Cloudy,270,2013-03-15 15:53:00
12:53 PM,44.1,28.9,55,29.96,10.0,WSW,9.2,-,N/A,,Partly Cloudy,240,2013-03-15 16:53:00
1:53 PM,46.9,30.0,52,29.93,10.0,SW,10.4,-,N/A,,Clear,230,2013-03-15 17:53:00
2:53 PM,48.9,30.9,50,29.89,10.0,West,8.1,-,N/A,,Clear,260,2013-03-15 18:53:00
3:53 PM,50.0,30.9,48,29.87,10.0,West,11.5,17.3,N/A,,Partly Cloudy,280,2013-03-15 19:53:00
4:53 PM,50.0,32.0,50,29.86,10.0,West,6.9,-,N/A,,Partly Cloudy,280,2013-03-15 20:53:00
5:53 PM,50.0,32.0,50,29.87,10.0,WNW,8.1,-,N/A,,Scattered Clouds,290,2013-03-15 21:53:00
6:53 PM,48.9,32.0,52,29.87,10.0,West,5.8,-,N/A,,Mostly Cloudy,270,2013-03-15 22:53:00
7:53 PM,46.9,33.1,59,29.89,10.0,WNW,4.6,-,N/A,,Overcast,290,2013-03-15 23:53:00
8:53 PM,46.0,33.1,61,29.89,10.0,West,3.5,-,N/A,,Overcast,270,2013-03-16 00:53:00
9:53 PM,46.0,34.0,63,29.89,10.0,Calm,Calm,-,0.00,,Overcast,0,2013-03-16 01:53:00
10:53 PM,43.0,37.0,80,29.88,8.0,Calm,Calm,-,0.00,Rain,Light Rain,0,2013-03-16 02:53:00
11:05 PM,42.8,37.4,81,29.87,8.0,Calm,Calm,-,0.00,Rain,Light Rain,0,2013-03-16 03:05:00
11:30 PM,42.8,37.4,81,29.86,6.0,Calm,Calm,-,0.01,Rain,Light Rain,0,2013-03-16 03:30:00
11:53 PM,42.1,37.9,85,29.87,5.0,Calm,Calm,-,0.01,Rain,Light Rain,0,2013-03-16 03:53:00